Volver al catálogo

CZ-4C DEB

ActivoPO
NORAD 38297·DEBRIS·🇨🇳 China

Lanzado Nov 4, 2010 desde Taiyuan Satellite Launch Center

Loading…

Próximos Pases (próximas 24 horas)

TLE

ActualizadoSource: Space-Track

Época: Sep 13, 2026, 12:51 UTC

1 38297U 10059G   26256.53597992  .00000240  00000-0  22365-3 0  9991
2 38297  98.7454 153.4422 0236708 158.0810 203.0675 13.78382472790406

Sigue CZ-4C DEB en tiempo real con AllMySat

Download on the App Store